Location: Starlight Observatory
(38.4029°N, 85.8936°W)
Time: 14:19:02
(UTC-05:00)

Iridium 62 - Visible Passes

Search period start: 01 March 2015 00:00
Search period end: 11 March 2015 01:00
Orbit: 776 x 779 km, 86.4° (Epoch: 01 March)

Date Brightness Start Highest point End Pass type
(mag) Time Alt. Az. Time Alt. Az. Time Alt. Az.
01 Mar 7.6 04:30:55 23° N 04:30:55 23° N 04:32:54 10° N visible
02 Mar 8.2 03:57:44 17° NNE 03:57:44 17° NNE 03:59:05 10° NNE visible
02 Mar 7.8 05:38:13 14° NW 05:38:13 14° NW 05:39:07 10° NNW visible
03 Mar 8.7 03:24:31 11° NE 03:24:31 11° NE 03:24:48 10° NE visible
03 Mar 7.7 05:05:00 17° NNW 05:05:00 17° NNW 05:06:17 10° NNW visible
04 Mar 7.9 04:31:46 18° N 04:31:46 18° N 04:33:01 10° N visible
05 Mar 8.3 03:58:30 15° NNE 03:58:30 15° NNE 03:59:25 10° N visible
06 Mar 8.7 03:25:12 11° NNE 03:25:12 11° NNE 03:25:26 10° NNE visible
06 Mar 8.1 05:05:41 12° NNW 05:05:41 12° NNW 05:06:03 10° NNW visible
07 Mar 8.1 04:32:22 13° N 04:32:22 13° N 04:33:01 10° N visible
08 Mar 8.3 04:59:02 13° N 04:59:02 13° N 04:59:36 10° N visible
09 Mar 8.7 04:25:42 11° NNE 04:25:42 11° NNE 04:25:52 10° NNE visible
10 Mar 8.3 05:32:48 10° NNW 05:32:48 10° NNW 05:32:53 10° NNW visible
